Location: Unspecified
(0.0000°N, 0.0000°E)
Time: 11:32:46
(UTC+00:00)

Vanguard 1 Rocket - Pass Details

Date: 23 November 2019
Orbit: 650 x 4226 km, 34.3° (Epoch: 07 December)

Event Time Altitude Azimuth Distance (km) Brightness Sun altitude
Rises 11:34:29 0° 285° (WNW) 5,024 11.1 69.5°
Reaches altitude 10° 11:37:20 10° 279° (W) 4,400 11.0 69.5°
Maximum altitude 11:49:56 48° 208° (SSW) 3,614 11.9 69.6°
Drops below altitude 10° 12:12:07 10° 140° (SE) 7,290 12.3 68.7°
Sets 12:18:53 0° 134° (SE) 8,463 12.4 68.2°
